Hourly Weather Kandahar

Today, 29 November, Sunday

Time Temperature Precipitation Wind Pressure Humidity
00:00 +13°C° 0 mm 1 mps 679 mmHg 29%
01:00 +13°C° 0 mm 1 mps 678 mmHg 29%
02:00 +13°C° 0 mm 1 mps 678 mmHg 29%
03:00 +12°C° 0 mm 1 mps 678 mmHg 30%
04:00 +11°C° 0 mm 0 mps 678 mmHg 30%
05:00 +11°C° 0 mm 0 mps 678 mmHg 31%
06:00 +12°C° 0 mm 1 mps 679 mmHg 31%
07:00 +12°C° 0 mm 1 mps 679 mmHg 31%
08:00 +14°C° 0 mm 1 mps 679 mmHg 28%
09:00 +15°C° 0 mm 1 mps 680 mmHg 24%
10:00 +17°C° 0 mm 2 mps 680 mmHg 21%
11:00 +17°C° 0 mm 2 mps 680 mmHg 20%
12:00 +18°C° 0 mm 2 mps 679 mmHg 20%
13:00 +19°C° 0 mm 2 mps 679 mmHg 19%
14:00 +18°C° 0 mm 2 mps 679 mmHg 22%
15:00 +18°C° 0 mm 2 mps 678 mmHg 24%
16:00 +18°C° 0 mm 2 mps 678 mmHg 27%
17:00 +17°C° 0 mm 2 mps 678 mmHg 30%
18:00 +15°C° 0 mm 1 mps 678 mmHg 34%
19:00 +14°C° 0 mm 1 mps 678 mmHg 38%
20:00 +14°C° 0 mm 1 mps 678 mmHg 39%
21:00 +14°C° 0 mm 1 mps 678 mmHg 40%
22:00 +12°C° 0 mm 0 mps 678 mmHg 41%
23:00 +12°C° 0 mm 0 mps 678 mmHg 42%

Tomorrow, 30 November, Monday

Time Temperature Precipitation Wind Pressure Humidity
00:00 +11°C° 0 mm 0 mps 677 mmHg 43%
01:00 +11°C° 0 mm 0 mps 677 mmHg 43%
02:00 +11°C° 0 mm 0 mps 676 mmHg 43%
03:00 +11°C° 0 mm 0 mps 676 mmHg 44%
04:00 +10°C° 0 mm 0 mps 676 mmHg 44%
05:00 +11°C° 0 mm 0 mps 676 mmHg 43%
06:00 +11°C° 0 mm 0 mps 677 mmHg 43%
07:00 +11°C° 0 mm 0 mps 677 mmHg 43%
08:00 +13°C° 0 mm 0 mps 677 mmHg 37%
09:00 +14°C° 0 mm 0 mps 678 mmHg 32%
10:00 +16°C° 0 mm 0 mps 679 mmHg 27%
11:00 +19°C° 0 mm 1 mps 678 mmHg 26%
12:00 +20°C° 0 mm 1 mps 678 mmHg 26%
13:00 +21°C° 0 mm 1 mps 677 mmHg 25%
14:00 +20°C° 0 mm 1 mps 677 mmHg 28%
15:00 +20°C° 0 mm 1 mps 677 mmHg 32%
16:00 +17°C° 0 mm 0 mps 677 mmHg 36%
17:00 +16°C° 0 mm 0 mps 677 mmHg 37%
18:00 +16°C° 0 mm 0 mps 677 mmHg 39%
19:00 +15°C° 0 mm 0 mps 677 mmHg 41%
20:00 +14°C° 0 mm 0 mps 677 mmHg 41%
21:00 +14°C° 0 mm 0 mps 677 mmHg 42%
22:00 +13°C° 0 mm 0 mps 677 mmHg 43%
23:00 +13°C° 0 mm 0 mps 677 mmHg 43%

Day after tomorrow, 1 December, Tuesday

Time Temperature Precipitation Wind Pressure Humidity
00:00 +13°C° 0 mm 0 mps 676 mmHg 43%
01:00 +12°C° 0 mm 0 mps 676 mmHg 44%
02:00 +12°C° 0 mm 0 mps 676 mmHg 44%
03:00 +12°C° 0 mm 0 mps 676 mmHg 44%
04:00 +11°C° 0 mm 0 mps 676 mmHg 44%
05:00 +12°C° 0 mm 0 mps 676 mmHg 44%
06:00 +12°C° 0 mm 0 mps 676 mmHg 44%
07:00 +12°C° 0 mm 0 mps 677 mmHg 45%
08:00 +14°C° 0 mm 0 mps 677 mmHg 39%
09:00 +16°C° 0 mm 0 mps 678 mmHg 33%
10:00 +18°C° 0 mm 0 mps 679 mmHg 27%
11:00 +19°C° 0 mm 0 mps 679 mmHg 26%
12:00 +19°C° 0 mm 0 mps 678 mmHg 24%
13:00 +20°C° 0 mm 0 mps 678 mmHg 23%
14:00 +20°C° 0 mm 0 mps 678 mmHg 26%
15:00 +19°C° 0 mm 0 mps 677 mmHg 30%
16:00 +18°C° 0 mm 0 mps 677 mmHg 33%
17:00 +17°C° 0 mm 0 mps 677 mmHg 35%
18:00 +16°C° 0 mm 0 mps 677 mmHg 37%
19:00 +15°C° 0 mm 0 mps 677 mmHg 39%
20:00 +14°C° 0 mm 0 mps 677 mmHg 39%
21:00 +14°C° 0 mm 0 mps 677 mmHg 40%
22:00 +13°C° 0 mm 0 mps 677 mmHg 40%
23:00 +13°C° 0 mm 0 mps 677 mmHg 40%

2 December, Wednesday

Time Temperature Precipitation Wind Pressure Humidity
00:00 +13°C° 0 mm 0 mps 677 mmHg 40%
01:00 +13°C° 0 mm 0 mps 677 mmHg 40%
02:00 +12°C° 0 mm 0 mps 677 mmHg 40%
03:00 +12°C° 0 mm 0 mps 676 mmHg 41%
04:00 +12°C° 0 mm 0 mps 676 mmHg 41%
05:00 +12°C° 0 mm 0 mps 677 mmHg 41%
06:00 +12°C° 0 mm 0 mps 677 mmHg 41%
07:00 +12°C° 0 mm 0 mps 677 mmHg 41%
08:00 +14°C° 0 mm 0 mps 678 mmHg 35%
09:00 +16°C° 0 mm 0 mps 679 mmHg 30%
10:00 +18°C° 0 mm 0 mps 679 mmHg 24%
11:00 +19°C° 0 mm 0 mps 679 mmHg 23%
12:00 +22°C° 0 mm 1 mps 678 mmHg 22%
13:00 +22°C° 0 mm 1 mps 678 mmHg 20%
14:00 +22°C° 0 mm 1 mps 678 mmHg 23%
15:00 +21°C° 0 mm 1 mps 677 mmHg 25%
16:00 +20°C° 0 mm 1 mps 677 mmHg 28%
17:00 +19°C° 0 mm 1 mps 677 mmHg 30%
18:00 +18°C° 0 mm 1 mps 677 mmHg 32%
19:00 +15°C° 0 mm 0 mps 677 mmHg 34%
20:00 +15°C° 0 mm 0 mps 677 mmHg 34%
21:00 +14°C° 0 mm 0 mps 677 mmHg 34%
22:00 +14°C° 0 mm 0 mps 677 mmHg 35%
23:00 +13°C° 0 mm 0 mps 676 mmHg 35%

3 December, Thursday

Time Temperature Precipitation Wind Pressure Humidity
00:00 +13°C° 0 mm 0 mps 676 mmHg 35%
01:00 +13°C° 0 mm 0 mps 676 mmHg 35%
02:00 +12°C° 0 mm 0 mps 676 mmHg 36%
03:00 +12°C° 0 mm 0 mps 675 mmHg 36%
04:00 +12°C° 0 mm 0 mps 675 mmHg 36%
05:00 +12°C° 0 mm 0 mps 676 mmHg 37%
06:00 +12°C° 0 mm 0 mps 676 mmHg 37%
07:00 +12°C° 0 mm 0 mps 676 mmHg 38%
08:00 +14°C° 0 mm 0 mps 677 mmHg 33%
09:00 +16°C° 0 mm 0 mps 677 mmHg 28%
10:00 +18°C° 0 mm 0 mps 678 mmHg 23%
11:00 +18°C° 0 mm 0 mps 677 mmHg 22%
12:00 +21°C° 0 mm 1 mps 677 mmHg 22%
13:00 +22°C° 0 mm 1 mps 676 mmHg 21%
14:00 +21°C° 0 mm 1 mps 676 mmHg 24%
15:00 +21°C° 0 mm 1 mps 676 mmHg 26%
16:00 +20°C° 0 mm 1 mps 676 mmHg 29%
17:00 +20°C° 0 mm 1 mps 676 mmHg 31%
18:00 +19°C° 0 mm 1 mps 676 mmHg 34%
19:00 +18°C° 0 mm 1 mps 676 mmHg 36%
20:00 +16°C° 0 mm 1 mps 676 mmHg 37%
21:00 +16°C° 0 mm 1 mps 676 mmHg 38%
22:00 +14°C° 0 mm 0 mps 675 mmHg 39%
23:00 +14°C° 0 mm 0 mps 675 mmHg 40%

4 December, Friday

Time Temperature Precipitation Wind Pressure Humidity
00:00 +13°C° 0 mm 0 mps 675 mmHg 40%
01:00 +13°C° 0 mm 0 mps 675 mmHg 40%
02:00 +13°C° 0 mm 0 mps 675 mmHg 40%
03:00 +13°C° 0 mm 0 mps 674 mmHg 40%
04:00 +12°C° 0 mm 0 mps 674 mmHg 40%
05:00 +12°C° 0 mm 0 mps 675 mmHg 40%
06:00 +12°C° 0 mm 0 mps 675 mmHg 40%
07:00 +12°C° 0 mm 0 mps 675 mmHg 40%
08:00 +14°C° 0 mm 0 mps 676 mmHg 35%
09:00 +18°C° 0 mm 1 mps 677 mmHg 30%
10:00 +20°C° 0 mm 1 mps 677 mmHg 24%
11:00 +20°C° 0 mm 2 mps 677 mmHg 23%
12:00 +20°C° 0 mm 2 mps 677 mmHg 21%
13:00 +21°C° 0 mm 3 mps 676 mmHg 20%
14:00 +21°C° 0 mm 3 mps 676 mmHg 22%
15:00 +20°C° 0 mm 3 mps 676 mmHg 24%
16:00 +20°C° 0 mm 3 mps 676 mmHg 25%
17:00 +19°C° 0 mm 3 mps 676 mmHg 28%
18:00 +18°C° 0 mm 2 mps 676 mmHg 31%
19:00 +17°C° 0 mm 2 mps 676 mmHg 34%
20:00 +16°C° 0 mm 2 mps 676 mmHg 35%
21:00 +15°C° 0 mm 1 mps 676 mmHg 37%
22:00 +15°C° 0 mm 1 mps 676 mmHg 39%
23:00 +14°C° 0 mm 1 mps 676 mmHg 40%
Show more